Time,TemperatureF,DewpointF,PressureIn,WindDirection,WindDirectionDegrees,WindSpeedMPH,WindSpeedGustMPH,Humidity,HourlyPrecipIn,Conditions,Clouds,dailyrainin,SoftwareType,DateUTC
2013-01-21 00:00:00,27.3,13.7,29.84,NE,53,6.0,6.0,56,0.00,,,0.00,Wunderground v.1.15,2013-01-21 05:00:00,
2013-01-21 00:05:00,27.1,13.5,29.85,NNW,333,6.0,13.0,56,0.00,,,0.00,Wunderground v.1.15,2013-01-21 05:05:00,
2013-01-21 00:10:00,27.0,13.4,29.85,NW,315,7.0,13.0,56,0.00,,,0.00,Wunderground v.1.15,2013-01-21 05:10:00,
2013-01-21 00:15:00,26.9,13.3,29.85,WNW,290,9.0,13.0,56,0.00,,,0.00,Wunderground v.1.15,2013-01-21 05:15:00,
2013-01-21 00:20:00,26.7,13.1,29.85,West,281,7.0,13.0,56,0.00,,,0.00,Wunderground v.1.15,2013-01-21 05:20:00,
2013-01-21 00:25:00,26.5,12.9,29.85,North,350,7.0,13.0,56,0.00,,,0.00,Wunderground v.1.15,2013-01-21 05:25:00,
2013-01-21 00:30:00,26.2,12.2,29.86,NW,321,9.0,15.0,55,0.00,,,0.00,Wunderground v.1.15,2013-01-21 05:30:00,
2013-01-21 00:35:00,26.1,12.1,29.86,WNW,287,9.0,15.0,55,0.00,,,0.00,Wunderground v.1.15,2013-01-21 05:35:00,
2013-01-21 00:45:00,25.4,12.3,29.86,NNW,347,9.0,13.0,57,0.00,,,0.00,Wunderground v.1.15,2013-01-21 05:45:00,
2013-01-21 00:50:00,25.3,12.6,29.87,NNW,331,9.0,9.0,58,0.00,,,0.00,Wunderground v.1.15,2013-01-21 05:50:00,
2013-01-21 00:55:00,24.8,12.5,29.87,NW,309,8.0,13.0,59,0.00,,,0.00,Wunderground v.1.15,2013-01-21 05:55:00,
2013-01-21 01:00:00,24.5,12.2,29.87,NW,321,9.0,13.0,59,0.00,,,0.00,Wunderground v.1.15,2013-01-21 06:00:00,
2013-01-21 01:05:00,24.4,12.5,29.87,West,266,9.0,13.0,60,0.00,,,0.00,Wunderground v.1.15,2013-01-21 06:05:00,
2013-01-21 01:15:00,24.1,12.2,29.88,North,355,6.0,13.0,60,0.00,,,0.00,Wunderground v.1.15,2013-01-21 06:15:00,
2013-01-21 01:20:00,23.8,11.2,29.88,NNW,336,7.0,7.0,58,0.00,,,0.00,Wunderground v.1.15,2013-01-21 06:20:00,
2013-01-21 01:25:00,23.5,10.9,29.89,North,5,7.0,13.0,58,0.00,,,0.00,Wunderground v.1.15,2013-01-21 06:25:00,
2013-01-21 01:30:00,23.3,10.7,29.89,NW,310,6.0,13.0,58,0.00,,,0.00,Wunderground v.1.15,2013-01-21 06:30:00,
2013-01-21 01:35:00,23.1,10.5,29.90,WSW,242,7.0,13.0,58,0.00,,,0.00,Wunderground v.1.15,2013-01-21 06:35:00,
2013-01-21 01:40:00,22.9,10.7,29.90,NNW,340,6.0,13.0,59,0.00,,,0.00,Wunderground v.1.15,2013-01-21 06:40:00,
2013-01-21 01:50:00,22.3,9.7,29.91,North,355,7.0,7.0,58,0.00,,,0.00,Wunderground v.1.15,2013-01-21 06:50:00,
2013-01-21 01:55:00,22.1,9.2,29.91,NNW,345,6.0,13.0,57,0.00,,,0.00,Wunderground v.1.15,2013-01-21 06:55:00,
2013-01-21 02:00:00,21.8,8.9,29.92,NNW,336,7.0,13.0,57,0.00,,,0.00,Wunderground v.1.15,2013-01-21 07:00:00,
2013-01-21 02:10:00,21.5,8.6,29.92,WNW,291,7.0,7.0,57,0.00,,,0.00,Wunderground v.1.15,2013-01-21 07:10:00,
2013-01-21 02:15:00,21.3,8.4,29.92,NNE,22,6.0,13.0,57,0.00,,,0.00,Wunderground v.1.15,2013-01-21 07:15:00,
2013-01-21 02:25:00,21.0,8.5,29.93,West,280,5.0,13.0,58,0.00,,,0.00,Wunderground v.1.15,2013-01-21 07:25:00,
2013-01-21 02:35:00,20.8,7.9,29.93,WNW,294,7.0,13.0,57,0.00,,,0.00,Wunderground v.1.15,2013-01-21 07:35:00,
2013-01-21 02:40:00,20.8,7.9,29.93,NNW,339,7.0,7.0,57,0.00,,,0.00,Wunderground v.1.15,2013-01-21 07:40:00,
2013-01-21 02:45:00,20.7,7.5,29.93,NNW,331,7.0,11.0,56,0.00,,,0.00,Wunderground v.1.15,2013-01-21 07:45:00,
2013-01-21 02:55:00,20.5,7.3,29.94,WNW,294,7.0,13.0,56,0.00,,,0.00,Wunderground v.1.15,2013-01-21 07:55:00,
2013-01-21 03:00:00,20.4,7.2,29.94,WNW,298,8.0,13.0,56,0.00,,,0.00,Wunderground v.1.15,2013-01-21 08:00:00,
2013-01-21 03:05:00,20.3,7.1,29.95,WNW,292,8.0,13.0,56,0.00,,,0.00,Wunderground v.1.15,2013-01-21 08:05:00,
2013-01-21 03:15:00,20.2,7.0,29.94,North,355,7.0,13.0,56,0.00,,,0.00,Wunderground v.1.15,2013-01-21 08:15:00,
2013-01-21 03:20:00,20.1,7.3,29.95,NW,308,7.0,7.0,57,0.00,,,0.00,Wunderground v.1.15,2013-01-21 08:20:00,
2013-01-21 03:25:00,20.0,6.8,29.95,NW,304,7.0,13.0,56,0.00,,,0.00,Wunderground v.1.15,2013-01-21 08:25:00,
2013-01-21 03:30:00,19.9,6.7,29.95,NW,319,8.0,13.0,56,0.00,,,0.00,Wunderground v.1.15,2013-01-21 08:30:00,
2013-01-21 03:40:00,19.8,6.6,29.95,NW,305,8.0,13.0,56,0.00,,,0.00,Wunderground v.1.15,2013-01-21 08:40:00,
2013-01-21 03:45:00,19.7,6.1,29.95,SW,232,8.0,13.0,55,0.00,,,0.00,Wunderground v.1.15,2013-01-21 08:45:00,
2013-01-21 03:50:00,19.6,6.0,29.95,North,360,8.0,8.0,55,0.00,,,0.00,Wunderground v.1.15,2013-01-21 08:50:00,
2013-01-21 03:55:00,19.6,5.6,29.95,NE,35,8.0,13.0,54,0.00,,,0.00,Wunderground v.1.15,2013-01-21 08:55:00,
2013-01-21 04:05:00,19.4,5.4,29.96,North,360,7.0,13.0,54,0.00,,,0.00,Wunderground v.1.15,2013-01-21 09:05:00,
2013-01-21 04:10:00,19.4,5.4,29.97,SW,231,7.0,7.0,54,0.00,,,0.00,Wunderground v.1.15,2013-01-21 09:10:00,
2013-01-21 04:15:00,19.3,5.3,29.97,NE,34,7.0,13.0,54,0.00,,,0.00,Wunderground v.1.15,2013-01-21 09:15:00,
2013-01-21 04:20:00,19.1,5.2,29.97,West,277,7.0,7.0,54,0.00,,,0.00,Wunderground v.1.15,2013-01-21 09:20:00,
2013-01-21 04:25:00,19.0,4.7,29.97,NW,310,7.0,13.0,53,0.00,,,0.00,Wunderground v.1.15,2013-01-21 09:25:00,
2013-01-21 04:35:00,18.9,4.6,29.97,West,279,5.0,8.0,53,0.00,,,0.00,Wunderground v.1.15,2013-01-21 09:35:00,
2013-01-21 04:40:00,18.8,4.1,29.98,WNW,282,7.0,7.0,52,0.00,,,0.00,Wunderground v.1.15,2013-01-21 09:40:00,
2013-01-21 04:45:00,18.7,4.0,29.98,NNW,340,8.0,9.0,52,0.00,,,0.00,Wunderground v.1.15,2013-01-21 09:45:00,
2013-01-21 04:50:00,18.6,4.3,29.98,NW,305,7.0,7.0,53,0.00,,,0.00,Wunderground v.1.15,2013-01-21 09:50:00,
2013-01-21 04:55:00,18.5,4.2,29.98,West,277,6.0,11.0,53,0.00,,,0.00,Wunderground v.1.15,2013-01-21 09:55:00,
2013-01-21 05:00:00,18.4,3.3,29.98,NW,313,8.0,13.0,51,0.00,,,0.00,Wunderground v.1.15,2013-01-21 10:00:00,
2013-01-21 05:10:00,18.2,3.5,29.99,NW,307,7.0,13.0,52,0.00,,,0.00,Wunderground v.1.15,2013-01-21 10:10:00,
2013-01-21 05:15:00,18.2,3.5,29.99,West,278,8.0,13.0,52,0.00,,,0.00,Wunderground v.1.15,2013-01-21 10:15:00,
2013-01-21 05:20:00,18.1,3.8,29.99,NNE,15,7.0,13.0,53,0.00,,,0.00,Wunderground v.1.15,2013-01-21 10:20:00,
2013-01-21 05:25:00,18.0,3.7,30.00,NW,324,6.0,13.0,53,0.00,,,0.00,Wunderground v.1.15,2013-01-21 10:25:00,
2013-01-21 05:30:00,17.9,3.6,30.00,WNW,303,5.0,5.0,53,0.00,,,0.00,Wunderground v.1.15,2013-01-21 10:30:00,
2013-01-21 05:40:00,17.7,3.8,30.00,NNW,335,3.0,3.0,54,0.00,,,0.00,Wunderground v.1.15,2013-01-21 10:40:00,
2013-01-21 05:45:00,17.6,3.8,30.00,NW,305,3.0,5.0,54,0.00,,,0.00,Wunderground v.1.15,2013-01-21 10:45:00,
2013-01-21 05:50:00,17.5,3.7,30.00,WNW,302,5.0,13.0,54,0.00,,,0.00,Wunderground v.1.15,2013-01-21 10:50:00,
2013-01-21 05:55:00,17.3,3.5,30.01,NNW,331,6.0,13.0,54,0.00,,,0.00,Wunderground v.1.15,2013-01-21 10:55:00,
2013-01-21 06:00:00,17.2,4.2,30.01,NNW,329,5.0,5.0,56,0.00,,,0.00,Wunderground v.1.15,2013-01-21 11:00:00,
2013-01-21 06:05:00,16.9,3.9,30.01,North,351,4.0,6.0,56,0.00,,,0.00,Wunderground v.1.15,2013-01-21 11:05:00,
2013-01-21 06:15:00,16.5,4.3,30.01,NNE,26,3.0,13.0,58,0.00,,,0.00,Wunderground v.1.15,2013-01-21 11:15:00,
2013-01-21 06:20:00,16.3,4.1,30.01,NNE,28,3.0,13.0,58,0.00,,,0.00,Wunderground v.1.15,2013-01-21 11:20:00,
2013-01-21 06:25:00,16.2,4.0,30.01,NNW,335,4.0,13.0,58,0.00,,,0.00,Wunderground v.1.15,2013-01-21 11:25:00,
2013-01-21 06:30:00,16.1,3.9,30.02,NNW,330,4.0,4.0,58,0.00,,,0.00,Wunderground v.1.15,2013-01-21 11:30:00,
2013-01-21 06:35:00,16.0,3.8,30.02,WNW,300,4.0,13.0,58,0.00,,,0.00,Wunderground v.1.15,2013-01-21 11:35:00,
2013-01-21 06:45:00,15.8,3.2,30.02,NNW,332,4.0,13.0,57,0.00,,,0.00,Wunderground v.1.15,2013-01-21 11:45:00,
2013-01-21 06:50:00,15.7,3.5,30.02,NW,323,5.0,13.0,58,0.00,,,0.00,Wunderground v.1.15,2013-01-21 11:50:00,
2013-01-21 06:55:00,15.7,3.1,30.02,North,5,4.0,13.0,57,0.00,,,0.00,Wunderground v.1.15,2013-01-21 11:55:00,
2013-01-21 07:05:00,15.6,3.1,30.02,NW,325,4.0,13.0,57,0.00,,,0.00,Wunderground v.1.15,2013-01-21 12:05:00,
2013-01-21 07:10:00,15.4,2.9,30.03,NNW,329,3.0,3.0,57,0.00,,,0.00,Wunderground v.1.15,2013-01-21 12:10:00,
2013-01-21 07:15:00,15.4,2.9,30.03,NW,308,3.0,8.0,57,0.00,,,0.00,Wunderground v.1.15,2013-01-21 12:15:00,
2013-01-21 07:20:00,15.4,2.9,30.03,North,10,3.0,3.0,57,0.00,,,0.00,Wunderground v.1.15,2013-01-21 12:20:00,
2013-01-21 07:30:00,15.2,2.7,30.03,NNE,19,3.0,3.0,57,0.00,,,0.00,Wunderground v.1.15,2013-01-21 12:30:00,
2013-01-21 07:35:00,15.4,3.2,30.04,NNW,334,2.0,8.0,58,0.00,,,0.00,Wunderground v.1.15,2013-01-21 12:35:00,
2013-01-21 07:40:00,15.4,2.9,30.04,WNW,286,3.0,13.0,57,0.00,,,0.00,Wunderground v.1.15,2013-01-21 12:40:00,
2013-01-21 07:45:00,15.6,3.1,30.04,ENE,76,3.0,13.0,57,0.00,,,0.00,Wunderground v.1.15,2013-01-21 12:45:00,
2013-01-21 07:55:00,15.9,3.0,30.05,NW,319,2.0,4.0,56,0.00,,,0.00,Wunderground v.1.15,2013-01-21 12:55:00,
2013-01-21 08:00:00,15.8,2.9,30.05,WNW,286,3.0,13.0,56,0.00,,,0.00,Wunderground v.1.15,2013-01-21 13:00:00,
2013-01-21 08:05:00,15.9,2.6,30.05,NNW,327,5.0,13.0,55,0.00,,,0.00,Wunderground v.1.15,2013-01-21 13:05:00,
2013-01-21 08:10:00,16.0,4.9,30.05,NW,319,5.0,13.0,61,0.00,,,0.00,Wunderground v.1.15,2013-01-21 13:10:00,
2013-01-21 08:15:00,16.2,2.8,30.05,NNW,332,4.0,13.0,55,0.00,,,0.00,Wunderground v.1.15,2013-01-21 13:15:00,
2013-01-21 08:25:00,16.4,3.0,30.05,NNE,32,5.0,13.0,55,0.00,,,0.00,Wunderground v.1.15,2013-01-21 13:25:00,
2013-01-21 08:30:00,16.4,1.8,30.05,NW,311,6.0,6.0,52,0.00,,,0.00,Wunderground v.1.15,2013-01-21 13:30:00,
2013-01-21 08:35:00,16.4,1.8,30.05,NW,320,7.0,8.0,52,0.00,,,0.00,Wunderground v.1.15,2013-01-21 13:35:00,
2013-01-21 08:40:00,16.6,2.0,30.06,NW,321,8.0,8.0,52,0.00,,,0.00,Wunderground v.1.15,2013-01-21 13:40:00,
2013-01-21 08:45:00,16.7,2.1,30.06,WNW,299,7.0,13.0,52,0.00,,,0.00,Wunderground v.1.15,2013-01-21 13:45:00,
2013-01-21 08:50:00,16.7,2.1,30.07,WNW,298,7.0,13.0,52,0.00,,,0.00,Wunderground v.1.15,2013-01-21 13:50:00,
2013-01-21 08:55:00,17.0,2.4,30.07,NW,312,7.0,13.0,52,0.00,,,0.00,Wunderground v.1.15,2013-01-21 13:55:00,
2013-01-21 09:00:00,17.2,2.1,30.07,WNW,286,7.0,13.0,51,0.00,,,0.00,Wunderground v.1.15,2013-01-21 14:00:00,
2013-01-21 09:05:00,17.2,1.7,30.07,NW,313,7.0,13.0,50,0.00,,,0.00,Wunderground v.1.15,2013-01-21 14:05:00,
2013-01-21 09:10:00,17.3,2.2,30.07,WNW,287,8.0,8.0,51,0.00,,,0.00,Wunderground v.1.15,2013-01-21 14:10:00,
2013-01-21 09:15:00,17.7,2.6,30.07,WNW,296,6.0,13.0,51,0.00,,,0.00,Wunderground v.1.15,2013-01-21 14:15:00,
2013-01-21 09:20:00,17.9,2.4,30.07,WNW,283,4.0,4.0,50,0.00,,,0.00,Wunderground v.1.15,2013-01-21 14:20:00,
2013-01-21 09:30:00,18.1,2.6,30.07,WNW,297,6.0,13.0,50,0.00,,,0.00,Wunderground v.1.15,2013-01-21 14:30:00,
2013-01-21 09:35:00,18.3,1.9,30.08,WNW,302,7.0,13.0,48,0.00,,,0.00,Wunderground v.1.15,2013-01-21 14:35:00,
2013-01-21 09:40:00,18.2,1.8,30.08,WSW,258,7.0,7.0,48,0.00,,,0.00,Wunderground v.1.15,2013-01-21 14:40:00,
2013-01-21 09:45:00,18.8,2.8,30.07,West,269,7.0,13.0,49,0.00,,,0.00,Wunderground v.1.15,2013-01-21 14:45:00,
2013-01-21 09:50:00,18.8,2.3,30.07,WNW,303,7.0,13.0,48,0.00,,,0.00,Wunderground v.1.15,2013-01-21 14:50:00,
2013-01-21 09:55:00,18.7,1.8,30.08,West,281,8.0,13.0,47,0.00,,,0.00,Wunderground v.1.15,2013-01-21 14:55:00,
2013-01-21 10:05:00,18.6,1.7,30.07,WNW,288,10.0,13.0,47,0.00,,,0.00,Wunderground v.1.15,2013-01-21 15:05:00,
2013-01-21 10:10:00,18.9,1.5,30.07,WNW,282,10.0,10.0,46,0.00,,,0.00,Wunderground v.1.15,2013-01-21 15:10:00,
2013-01-21 10:15:00,18.9,1.5,30.07,West,261,10.0,13.0,46,0.00,,,0.00,Wunderground v.1.15,2013-01-21 15:15:00,
2013-01-21 10:20:00,19.1,1.7,30.07,NNW,345,9.0,9.0,46,0.00,,,0.00,Wunderground v.1.15,2013-01-21 15:20:00,
2013-01-21 10:30:00,19.8,1.8,30.07,North,349,7.0,7.0,45,0.00,,,0.00,Wunderground v.1.15,2013-01-21 15:30:00,
2013-01-21 10:35:00,19.8,1.4,30.06,WNW,286,7.0,13.0,44,0.00,,,0.00,Wunderground v.1.15,2013-01-21 15:35:00,
2013-01-21 10:45:00,20.2,1.2,30.05,West,281,8.0,8.0,43,0.00,,,0.00,Wunderground v.1.15,2013-01-21 15:45:00,
2013-01-21 10:50:00,20.3,0.8,30.04,NNW,340,8.0,8.0,42,0.00,,,0.00,Wunderground v.1.15,2013-01-21 15:50:00,
2013-01-21 10:55:00,20.5,1.5,30.04,NW,309,8.0,13.0,43,0.00,,,0.00,Wunderground v.1.15,2013-01-21 15:55:00,
2013-01-21 11:00:00,20.4,0.4,30.04,WNW,298,10.0,10.0,41,0.00,,,0.00,Wunderground v.1.15,2013-01-21 16:00:00,
2013-01-21 11:05:00,21.0,1.5,30.04,NE,53,8.0,10.0,42,0.00,,,0.00,Wunderground v.1.15,2013-01-21 16:05:00,
2013-01-21 11:15:00,21.6,1.0,30.05,NW,321,7.0,14.0,40,0.00,,,0.00,Wunderground v.1.15,2013-01-21 16:15:00,
2013-01-21 11:20:00,21.2,0.1,30.05,West,263,10.0,13.0,39,0.00,,,0.00,Wunderground v.1.15,2013-01-21 16:20:00,
2013-01-21 11:25:00,21.0,0.4,30.04,WNW,286,11.0,13.0,40,0.00,,,0.00,Wunderground v.1.15,2013-01-21 16:25:00,
2013-01-21 11:30:00,21.3,0.1,30.04,WNW,291,10.0,10.0,39,0.00,,,0.00,Wunderground v.1.15,2013-01-21 16:30:00,
2013-01-21 11:35:00,21.3,0.7,30.04,West,263,10.0,16.0,40,0.00,,,0.00,Wunderground v.1.15,2013-01-21 16:35:00,
2013-01-21 11:40:00,21.5,0.3,30.04,SW,231,8.0,16.0,39,0.00,,,0.00,Wunderground v.1.15,2013-01-21 16:40:00,
2013-01-21 11:50:00,21.7,1.6,30.03,NNE,13,8.0,8.0,41,0.00,,,0.00,Wunderground v.1.15,2013-01-21 16:50:00,
2013-01-21 11:55:00,22.2,1.0,30.02,WNW,287,6.0,16.0,39,0.00,,,0.00,Wunderground v.1.15,2013-01-21 16:55:00,
2013-01-21 12:00:00,22.2,1.5,30.03,WSW,251,5.0,16.0,40,0.00,,,0.00,Wunderground v.1.15,2013-01-21 17:00:00,
2013-01-21 12:10:00,22.2,1.5,30.02,WNW,283,5.0,16.0,40,0.00,,,0.00,Wunderground v.1.15,2013-01-21 17:10:00,
2013-01-21 12:15:00,22.8,2.0,30.02,WNW,299,4.0,16.0,40,0.00,,,0.00,Wunderground v.1.15,2013-01-21 17:15:00,
2013-01-21 12:20:00,22.8,0.9,30.02,SW,221,4.0,16.0,38,0.00,,,0.00,Wunderground v.1.15,2013-01-21 17:20:00,
2013-01-21 12:30:00,22.8,1.5,30.01,WNW,285,4.0,16.0,39,0.00,,,0.00,Wunderground v.1.15,2013-01-21 17:30:00,
2013-01-21 12:35:00,23.3,1.4,30.00,NE,53,4.0,16.0,38,0.00,,,0.00,Wunderground v.1.15,2013-01-21 17:35:00,
2013-01-21 12:40:00,23.2,1.3,30.00,WNW,289,4.0,16.0,38,0.00,,,0.00,Wunderground v.1.15,2013-01-21 17:40:00,
2013-01-21 12:45:00,23.1,1.2,30.00,West,279,5.0,16.0,38,0.00,,,0.00,Wunderground v.1.15,2013-01-21 17:45:00,
2013-01-21 12:55:00,23.5,-0.2,30.00,NE,47,5.0,16.0,35,0.00,,,0.00,Wunderground v.1.15,2013-01-21 17:55:00,
2013-01-21 13:00:00,24.0,0.9,30.00,West,261,6.0,16.0,36,0.00,,,0.00,Wunderground v.1.15,2013-01-21 18:00:00,
2013-01-21 13:05:00,23.7,-0.6,30.00,SW,232,6.0,16.0,34,0.00,,,0.00,Wunderground v.1.15,2013-01-21 18:05:00,
2013-01-21 13:10:00,24.2,0.4,30.00,SW,215,6.0,6.0,35,0.00,,,0.00,Wunderground v.1.15,2013-01-21 18:10:00,
2013-01-21 13:15:00,24.0,-0.4,30.00,West,280,4.0,16.0,34,0.00,,,0.00,Wunderground v.1.15,2013-01-21 18:15:00,
2013-01-21 13:20:00,23.9,0.8,30.00,NE,56,3.0,16.0,36,0.00,,,0.00,Wunderground v.1.15,2013-01-21 18:20:00,
2013-01-21 13:30:00,24.2,-0.8,30.00,WNW,293,5.0,16.0,33,0.00,,,0.00,Wunderground v.1.15,2013-01-21 18:30:00,
2013-01-21 13:35:00,24.5,0.1,30.00,West,269,7.0,16.0,34,0.00,,,0.00,Wunderground v.1.15,2013-01-21 18:35:00,
2013-01-21 13:40:00,24.9,-0.2,30.00,SW,233,6.0,6.0,33,0.00,,,0.00,Wunderground v.1.15,2013-01-21 18:40:00,
2013-01-21 13:45:00,24.7,-0.4,30.00,NNW,327,5.0,16.0,33,0.00,,,0.00,Wunderground v.1.15,2013-01-21 18:45:00,
2013-01-21 13:50:00,24.6,-0.5,30.00,WSW,248,5.0,5.0,33,0.00,,,0.00,Wunderground v.1.15,2013-01-21 18:50:00,
2013-01-21 14:00:00,24.8,-0.3,30.00,WSW,258,3.0,16.0,33,0.00,,,0.00,Wunderground v.1.15,2013-01-21 19:00:00,
2013-01-21 14:05:00,24.9,-0.2,30.00,WSW,252,3.0,16.0,33,0.00,,,0.00,Wunderground v.1.15,2013-01-21 19:05:00,
2013-01-21 14:10:00,25.0,0.5,30.00,West,269,3.0,3.0,34,0.00,,,0.00,Wunderground v.1.15,2013-01-21 19:10:00,
2013-01-21 14:15:00,25.3,-0.5,30.00,WNW,285,3.0,16.0,32,0.00,,,0.00,Wunderground v.1.15,2013-01-21 19:15:00,
2013-01-21 14:20:00,26.0,0.8,30.00,South,189,2.0,16.0,33,0.00,,,0.00,Wunderground v.1.15,2013-01-21 19:20:00,
2013-01-21 14:25:00,26.0,0.1,30.00,West,275,2.0,16.0,32,0.00,,,0.00,Wunderground v.1.15,2013-01-21 19:25:00,
2013-01-21 14:35:00,25.3,-0.5,30.00,WNW,286,5.0,16.0,32,0.00,,,0.00,Wunderground v.1.15,2013-01-21 19:35:00,
2013-01-21 14:40:00,25.3,-0.5,30.00,NW,311,3.0,3.0,32,0.00,,,0.00,Wunderground v.1.15,2013-01-21 19:40:00,
2013-01-21 14:45:00,25.9,0.0,30.00,SSW,213,1.0,16.0,32,0.00,,,0.00,Wunderground v.1.15,2013-01-21 19:45:00,
2013-01-21 14:55:00,26.2,0.3,30.00,SSW,211,1.0,16.0,32,0.00,,,0.00,Wunderground v.1.15,2013-01-21 19:55:00,
2013-01-21 15:00:00,26.3,1.0,30.00,SW,227,0.0,16.0,33,0.00,,,0.00,Wunderground v.1.15,2013-01-21 20:00:00,
2013-01-21 15:10:00,26.3,2.3,30.00,South,178,0.0,16.0,35,0.00,,,0.00,Wunderground v.1.15,2013-01-21 20:10:00,
2013-01-21 15:15:00,26.1,2.1,29.99,SSE,164,0.0,16.0,35,0.00,,,0.00,Wunderground v.1.15,2013-01-21 20:15:00,
2013-01-21 15:20:00,26.0,0.8,29.99,SSE,164,0.0,16.0,33,0.00,,,0.00,Wunderground v.1.15,2013-01-21 20:20:00,
2013-01-21 15:25:00,26.0,0.8,29.99,SSE,165,0.0,16.0,33,0.00,,,0.00,Wunderground v.1.15,2013-01-21 20:25:00,
2013-01-21 15:30:00,26.0,1.4,29.99,SSE,165,0.0,16.0,34,0.00,,,0.00,Wunderground v.1.15,2013-01-21 20:30:00,
2013-01-21 15:40:00,24.9,1.7,29.99,East,97,1.0,16.0,36,0.00,,,0.00,Wunderground v.1.15,2013-01-21 20:40:00,
2013-01-21 15:45:00,24.9,1.1,29.99,East,97,1.0,16.0,35,0.00,,,0.00,Wunderground v.1.15,2013-01-21 20:45:00,
2013-01-21 15:50:00,24.9,1.1,29.99,East,97,0.0,16.0,35,0.00,,,0.00,Wunderground v.1.15,2013-01-21 20:50:00,
2013-01-21 15:55:00,24.9,0.4,29.99,East,97,0.0,16.0,34,0.00,,,0.00,Wunderground v.1.15,2013-01-21 20:55:00,
2013-01-21 16:00:00,24.9,1.1,29.99,East,97,0.0,16.0,35,0.00,,,0.00,Wunderground v.1.15,2013-01-21 21:00:00,
2013-01-21 16:05:00,24.8,2.7,29.99,East,93,0.0,16.0,38,0.00,,,0.00,Wunderground v.1.15,2013-01-21 21:05:00,
2013-01-21 16:15:00,24.8,2.7,29.99,East,93,1.0,16.0,38,0.00,,,0.00,Wunderground v.1.15,2013-01-21 21:15:00,
2013-01-21 16:20:00,24.8,2.2,29.99,East,93,0.0,16.0,37,0.00,,,0.00,Wunderground v.1.15,2013-01-21 21:20:00,
2013-01-21 16:25:00,24.8,3.3,29.99,East,93,1.0,16.0,39,0.00,,,0.00,Wunderground v.1.15,2013-01-21 21:25:00,
2013-01-21 16:30:00,24.8,3.3,29.99,East,93,2.0,2.0,39,0.00,,,0.00,Wunderground v.1.15,2013-01-21 21:30:00,
2013-01-21 16:35:00,24.7,3.8,29.98,East,93,1.0,16.0,40,0.00,,,0.00,Wunderground v.1.15,2013-01-21 21:35:00,
2013-01-21 16:45:00,24.6,4.7,29.98,East,90,0.0,16.0,42,0.00,,,0.00,Wunderground v.1.15,2013-01-21 21:45:00,
2013-01-21 16:50:00,24.7,4.3,29.98,East,90,0.0,16.0,41,0.00,,,0.00,Wunderground v.1.15,2013-01-21 21:50:00,
2013-01-21 16:55:00,24.8,4.9,29.98,East,90,0.0,16.0,42,0.00,,,0.00,Wunderground v.1.15,2013-01-21 21:55:00,
2013-01-21 17:00:00,24.9,4.5,29.97,East,90,0.0,16.0,41,0.00,,,0.00,Wunderground v.1.15,2013-01-21 22:00:00,
2013-01-21 17:05:00,25.2,5.3,29.97,East,90,0.0,16.0,42,0.00,,,0.00,Wunderground v.1.15,2013-01-21 22:05:00,
2013-01-21 17:10:00,25.3,5.4,29.97,East,90,0.0,16.0,42,0.00,,,0.00,Wunderground v.1.15,2013-01-21 22:10:00,
2013-01-21 17:20:00,25.1,6.2,29.97,East,90,0.0,16.0,44,0.00,,,0.00,Wunderground v.1.15,2013-01-21 22:20:00,
2013-01-21 17:30:00,24.9,6.5,29.97,East,90,0.0,16.0,45,0.00,,,0.00,Wunderground v.1.15,2013-01-21 22:30:00,
2013-01-21 17:35:00,24.5,6.2,29.97,East,90,1.0,16.0,45,0.00,,,0.00,Wunderground v.1.15,2013-01-21 22:35:00,
2013-01-21 17:40:00,24.3,6.5,29.96,East,90,1.0,16.0,46,0.00,,,0.00,Wunderground v.1.15,2013-01-21 22:40:00,
2013-01-21 17:45:00,24.3,7.9,29.96,East,90,1.0,16.0,49,0.00,,,0.00,Wunderground v.1.15,2013-01-21 22:45:00,
2013-01-21 17:55:00,24.2,7.3,29.96,East,90,0.0,16.0,48,0.00,,,0.00,Wunderground v.1.15,2013-01-21 22:55:00,
2013-01-21 18:00:00,24.2,7.3,29.97,East,90,0.0,16.0,48,0.00,,,0.00,Wunderground v.1.15,2013-01-21 23:00:00,
2013-01-21 18:05:00,24.3,7.9,29.97,East,89,0.0,16.0,49,0.00,,,0.00,Wunderground v.1.15,2013-01-21 23:05:00,
2013-01-21 18:10:00,24.5,7.1,29.97,West,263,1.0,16.0,47,0.00,,,0.00,Wunderground v.1.15,2013-01-21 23:10:00,
2013-01-21 18:15:00,24.8,6.9,29.97,WSW,249,3.0,16.0,46,0.00,,,0.00,Wunderground v.1.15,2013-01-21 23:15:00,
2013-01-21 18:25:00,25.2,7.8,29.97,NNW,333,5.0,16.0,47,0.00,,,0.00,Wunderground v.1.15,2013-01-21 23:25:00,
2013-01-21 18:30:00,25.2,8.7,29.97,WSW,254,6.0,16.0,49,0.00,,,0.00,Wunderground v.1.15,2013-01-21 23:30:00,
2013-01-21 18:35:00,25.1,9.5,29.97,WSW,244,7.0,16.0,51,0.00,,,0.00,Wunderground v.1.15,2013-01-21 23:35:00,
2013-01-21 18:40:00,25.1,9.9,29.97,WSW,257,6.0,6.0,52,0.00,,,0.00,Wunderground v.1.15,2013-01-21 23:40:00,
2013-01-21 18:45:00,24.9,10.6,29.97,WNW,288,5.0,16.0,54,0.00,,,0.00,Wunderground v.1.15,2013-01-21 23:45:00,
2013-01-21 18:50:00,24.9,11.0,29.98,NW,317,5.0,16.0,55,0.00,,,0.00,Wunderground v.1.15,2013-01-21 23:50:00,
2013-01-21 19:00:00,24.6,12.3,29.98,WNW,292,6.0,6.0,59,0.00,,,0.00,Wunderground v.1.15,2013-01-22 00:00:00,
2013-01-21 19:05:00,24.4,12.9,29.98,West,279,5.0,16.0,61,0.00,,,0.00,Wunderground v.1.15,2013-01-22 00:05:00,
2013-01-21 19:10:00,24.2,13.8,29.98,NW,319,6.0,16.0,64,0.00,,,0.00,Wunderground v.1.15,2013-01-22 00:10:00,
2013-01-21 19:15:00,23.9,14.2,29.98,WNW,303,5.0,16.0,66,0.00,,,0.00,Wunderground v.1.15,2013-01-22 00:15:00,
2013-01-21 19:20:00,23.6,14.9,29.98,WNW,300,4.0,16.0,69,0.00,,,0.00,Wunderground v.1.15,2013-01-22 00:20:00,
2013-01-21 19:30:00,23.1,16.4,29.98,WNW,302,3.0,3.0,75,0.00,,,0.00,Wunderground v.1.15,2013-01-22 00:30:00,
2013-01-21 19:35:00,22.9,16.8,29.98,NW,308,1.0,16.0,77,0.00,,,0.00,Wunderground v.1.15,2013-01-22 00:35:00,
2013-01-21 19:40:00,22.7,16.9,29.98,WNW,300,2.0,16.0,78,0.00,,,0.00,Wunderground v.1.15,2013-01-22 00:40:00,
2013-01-21 19:45:00,22.6,17.4,29.98,NW,307,3.0,16.0,80,0.00,,,0.00,Wunderground v.1.15,2013-01-22 00:45:00,
2013-01-21 19:50:00,22.5,17.3,29.98,West,277,3.0,16.0,80,0.00,,,0.00,Wunderground v.1.15,2013-01-22 00:50:00,
2013-01-21 19:55:00,22.4,17.5,29.98,West,279,3.0,16.0,81,0.00,,,0.00,Wunderground v.1.15,2013-01-22 00:55:00,
2013-01-21 20:05:00,22.4,18.0,29.98,WNW,286,2.0,16.0,83,0.00,,,0.00,Wunderground v.1.15,2013-01-22 01:05:00,
2013-01-21 20:10:00,22.3,17.6,29.98,West,279,5.0,5.0,82,0.00,,,0.00,Wunderground v.1.15,2013-01-22 01:10:00,
2013-01-21 20:15:00,22.2,17.5,29.98,NW,313,6.0,6.0,82,0.00,,,0.00,Wunderground v.1.15,2013-01-22 01:15:00,
2013-01-21 20:25:00,22.0,17.6,29.98,NNW,333,4.0,16.0,83,0.00,,,0.00,Wunderground v.1.15,2013-01-22 01:25:00,
2013-01-21 20:30:00,21.9,17.8,29.98,North,355,3.0,3.0,84,0.00,,,0.00,Wunderground v.1.15,2013-01-22 01:30:00,
2013-01-21 20:35:00,22.0,18.2,29.98,WNW,301,2.0,16.0,85,0.00,,,0.00,Wunderground v.1.15,2013-01-22 01:35:00,
2013-01-21 20:45:00,21.8,18.0,29.98,WNW,297,3.0,16.0,85,0.00,,,0.00,Wunderground v.1.15,2013-01-22 01:45:00,
2013-01-21 20:50:00,21.8,18.0,29.98,NW,317,3.0,3.0,85,0.00,,,0.00,Wunderground v.1.15,2013-01-22 01:50:00,
2013-01-21 20:55:00,21.8,18.3,29.98,West,275,2.0,16.0,86,0.00,,,0.00,Wunderground v.1.15,2013-01-22 01:55:00,
2013-01-21 21:00:00,21.7,18.4,29.98,NW,304,2.0,2.0,87,0.00,,,0.00,Wunderground v.1.15,2013-01-22 02:00:00,
2013-01-21 21:10:00,21.6,18.3,29.98,NNW,340,2.0,16.0,87,0.00,,,0.00,Wunderground v.1.15,2013-01-22 02:10:00,
2013-01-21 21:15:00,21.6,18.3,29.98,NNW,334,1.0,16.0,87,0.00,,,0.00,Wunderground v.1.15,2013-01-22 02:15:00,
2013-01-21 21:20:00,21.6,18.3,29.97,NNE,17,2.0,16.0,87,0.00,,,0.00,Wunderground v.1.15,2013-01-22 02:20:00,
2013-01-21 21:25:00,21.6,18.3,29.97,North,5,2.0,16.0,87,0.00,,,0.00,Wunderground v.1.15,2013-01-22 02:25:00,
2013-01-21 21:30:00,21.6,18.3,29.97,North,9,1.0,16.0,87,0.00,,,0.00,Wunderground v.1.15,2013-01-22 02:30:00,
2013-01-21 21:35:00,21.6,18.1,29.98,NNE,18,1.0,16.0,86,0.00,,,0.00,Wunderground v.1.15,2013-01-22 02:35:00,
2013-01-21 21:45:00,21.5,18.0,29.97,NNE,26,2.0,3.0,86,0.00,,,0.00,Wunderground v.1.15,2013-01-22 02:45:00,
2013-01-21 21:50:00,21.5,18.0,29.97,NNE,30,2.0,16.0,86,0.00,,,0.00,Wunderground v.1.15,2013-01-22 02:50:00,
2013-01-21 21:55:00,21.5,18.0,29.96,NNE,30,2.0,16.0,86,0.00,,,0.00,Wunderground v.1.15,2013-01-22 02:55:00,
2013-01-21 22:00:00,21.5,18.0,29.96,NNE,30,1.0,16.0,86,0.00,,,0.00,Wunderground v.1.15,2013-01-22 03:00:00,
2013-01-21 22:05:00,21.4,17.9,29.95,NNE,30,2.0,16.0,86,0.00,,,0.00,Wunderground v.1.15,2013-01-22 03:05:00,
2013-01-21 22:15:00,21.4,17.6,29.95,NNE,33,1.0,16.0,85,0.00,,,0.00,Wunderground v.1.15,2013-01-22 03:15:00,
2013-01-21 22:20:00,21.3,17.5,29.94,NE,44,1.0,16.0,85,0.00,,,0.00,Wunderground v.1.15,2013-01-22 03:20:00,
2013-01-21 22:25:00,21.2,17.4,29.94,NE,44,1.0,16.0,85,0.00,,,0.00,Wunderground v.1.15,2013-01-22 03:25:00,
2013-01-21 22:30:00,21.0,17.2,29.94,NE,44,1.0,16.0,85,0.00,,,0.00,Wunderground v.1.15,2013-01-22 03:30:00,
2013-01-21 22:35:00,20.8,17.0,29.93,NE,44,1.0,16.0,85,0.00,,,0.00,Wunderground v.1.15,2013-01-22 03:35:00,
2013-01-21 22:40:00,20.7,16.9,29.92,NE,51,2.0,16.0,85,0.00,,,0.00,Wunderground v.1.15,2013-01-22 03:40:00,
2013-01-21 22:50:00,20.6,16.8,29.91,ENE,61,3.0,16.0,85,0.00,,,0.00,Wunderground v.1.15,2013-01-22 03:50:00,
2013-01-21 22:55:00,20.4,16.6,29.90,ENE,59,3.0,16.0,85,0.00,,,0.00,Wunderground v.1.15,2013-01-22 03:55:00,
2013-01-21 23:00:00,20.3,16.8,29.90,ENE,59,3.0,16.0,86,0.00,,,0.00,Wunderground v.1.15,2013-01-22 04:00:00,
2013-01-21 23:05:00,20.2,16.7,29.89,ENE,57,3.0,16.0,86,0.00,,,0.00,Wunderground v.1.15,2013-01-22 04:05:00,
2013-01-21 23:10:00,20.1,16.6,29.90,ENE,74,3.0,16.0,86,0.00,,,0.00,Wunderground v.1.15,2013-01-22 04:10:00,
2013-01-21 23:20:00,19.9,16.1,29.90,ENE,78,2.0,16.0,85,0.00,,,0.00,Wunderground v.1.15,2013-01-22 04:20:00,
2013-01-21 23:25:00,19.9,15.8,29.90,East,83,3.0,16.0,84,0.00,,,0.00,Wunderground v.1.15,2013-01-22 04:25:00,
2013-01-21 23:30:00,19.8,15.7,29.89,ENE,61,3.0,16.0,84,0.00,,,0.00,Wunderground v.1.15,2013-01-22 04:30:00,
2013-01-21 23:35:00,19.8,15.5,29.89,ENE,67,4.0,16.0,83,0.00,,,0.00,Wunderground v.1.15,2013-01-22 04:35:00,
2013-01-21 23:40:00,19.8,15.5,29.89,ENE,63,3.0,3.0,83,0.00,,,0.00,Wunderground v.1.15,2013-01-22 04:40:00,
2013-01-21 23:45:00,19.7,15.4,29.88,ENE,78,3.0,4.0,83,0.00,,,0.00,Wunderground v.1.15,2013-01-22 04:45:00,
2013-01-21 23:55:00,19.6,15.6,29.89,NE,56,3.0,16.0,84,0.00,,,0.00,Wunderground v.1.15,2013-01-22 04:55:00,